2018-092D (44042 NORAD) Tracking and Keplerian Element Data

This shows tracking and keplerian element data for the satellite.

Feedback or suggestion? Click here.




ElementValue
Catalog44042
Name2018-092D
Epoch Orbit1487
Epoch Day51.84422139
Epoch Year2019
RAAN221.2252
Inclination51.6402
Eccentricity0.0003669
Argument of Perigee49.7318
Mean Anonmoly310.3984
Mean Motion15.36406379
Decay Rate1.32E-05
L11 44042U 18092D 19051.84422139 .00001320 00000-0 47350-4 0 9992
L22 44042 51.6402 221.2252 0003669 49.7318 310.3984 15.36406379 14878

Live tracking and technical data element details for 2018-092D (NORAD 44042). 2018-092D can be tracked NOW for your location showing map with azimuth and elevation plus other details from your city location.

Track the satellite on the map from your city or location and see movement details for azimuth, elevation, latitude, longitude, range, height, and movement on the map or in text.







IsCatalogInMostPopularTable: catalog: 44042, numindb: 7
Update: records affected: 1



GetName: 44042 2018-092D

Hit Count: updated at: Thu, 21 Feb 2019 12:00:35 GMT